DW5735 Weather Reports


time (UTC)temp
C
wind
direction
speed
KPH
gust
KPH
rain 1hr
cm
rain 24hr
cm
rain mn
cm
humidity
%
barometer
mb
20260504100324 13 144 0.0 0.0 0.00 0.00 0.00 56 1010.5
20260504081834 15 62 0.0 0.0 0.00 0.00 0.00 56 1010.3
20260504081613 14 78 0.0 0.0 0.00 0.00 0.00 57 1009.6
20260504081318 15 75 0.0 0.0 0.00 0.00 0.00 60 1010.3
20260504080826 15 232 0.0 0.0 0.00 0.00 0.00 60 1010.3
20260504080320 15 121 0.0 6.4 0.00 0.00 0.00 60 1010.3
20260504070330 16 16 0.0 1.6 0.00 0.00 0.00 50 1010.0
20260504060105 16 77 0.0 0.0 0.00 0.00 0.00 50 1008.9
20260504050328 17 95 0.0 1.6 0.00 0.00 0.00 46 1009.5
20260504050104 17 96 0.0 4.8 0.00 0.00 0.00 48 1008.7
20260504045842 17 94 0.0 4.8 0.00 0.00 0.00 50 1009.6
20260504045320 18 21 1.6 3.2 0.00 0.00 0.00 48 1009.5
20260504044845 18 159 0.0 4.8 0.00 0.00 0.00 46 1009.5
20260504044608 17 131 0.0 4.8 0.00 0.00 0.00 48 1008.6
20260504044321 18 79 3.2 4.8 0.00 0.00 0.00 52 1009.5
20260504043820 18 103 0.0 1.6 0.00 0.00 0.00 51 1009.4
20260504043348 17 101 0.0 1.6 0.00 0.00 0.00 54 1009.4
20260504043113 17 89 0.0 1.6 0.00 0.00 0.00 57 1008.5
20260504042819 18 30 0.0 0.0 0.00 0.00 0.00 56 1009.4
20260504042329 18 103 0.0 0.0 0.00 0.00 0.00 57 1009.3
20260504041834 18 85 0.0 0.0 0.00 0.00 0.00 58 1009.3
20260504041617 18 48 0.0 0.0 0.00 0.00 0.00 56 1008.4
20260504041318 18 86 0.0 0.0 0.00 0.00 0.00 58 1009.3
20260504040829 18 86 0.0 0.0 0.00 0.00 0.00 52 1009.2
20260504040333 18 60 0.0 0.0 0.00 0.00 0.00 52 1009.2
20260504040103 18 177 0.0 0.0 0.00 0.00 0.00 61 1008.3
20260504035819 19 177 0.0 0.0 0.00 0.00 0.00 61 1009.1
20260504035356 20 176 0.0 1.6 0.00 0.00 0.00 46 1009.1
20260504034820 20 208 0.0 1.6 0.00 0.00 0.00 50 1009.1
20260504034628 20 208 0.0 1.6 0.00 0.00 0.00 46 1008.3
20260504034337 20 268 0.0 1.6 0.00 0.00 0.00 45 1009.1
20260504033847 20 107 0.0 1.6 0.00 0.00 0.00 45 1009.0
20260504033340 21 78 0.0 0.0 0.00 0.00 0.00 48 1008.9
20260504033010 21 105 0.0 0.0 0.00 0.00 0.00 46 1008.0
20260504032835 21 105 0.0 0.0 0.00 0.00 0.00 44 1008.9
20260504032321 21 276 0.0 1.6 0.00 0.00 0.00 46 1008.9
20260504031825 21 158 0.0 4.8 0.00 0.00 0.00 43 1008.8
20260504031520 21 134 0.0 4.8 0.00 0.00 0.00 46 1008.0
20260504031343 21 49 1.6 8.0 0.00 0.00 0.00 48 1008.9
20260504030853 22 177 1.6 8.0 0.00 0.00 0.00 46 1008.9
20260504030319 23 108 0.0 1.6 0.00 0.00 0.00 41 1008.9
20260504030100 22 108 0.0 6.4 0.00 0.00 0.00 41 1008.0
20260504025835 23 82 0.0 9.7 0.00 0.00 0.00 42 1008.9
20260504025358 23 79 3.2 9.7 0.00 0.00 0.00 40 1008.9
20260504024840 23 132 0.0 1.6 0.00 0.00 0.00 39 1008.8
20260504024516 23 98 0.0 1.6 0.00 0.00 0.00 41 1008.0
20260504024340 23 87 0.0 1.6 0.00 0.00 0.00 41 1008.9
20260504023842 23 152 0.0 1.6 0.00 0.00 0.00 43 1008.9
20260504023322 23 360 0.0 1.6 0.00 0.00 0.00 44 1009.0
20260504023104 22 231 0.0 1.6 0.00 0.00 0.00 45 1008.1
20260504022855 23 253 0.0 1.6 0.00 0.00 0.00 48 1008.9
20260504022330 23 245 0.0 4.8 0.00 0.00 0.00 47 1008.9
20260504021836 25 217 0.0 4.8 0.00 0.00 0.00 44 1008.9
20260504021607 26 283 0.0 4.8 0.00 0.00 0.00 41 1008.0
20260504021343 26 139 0.0 0.0 0.00 0.00 0.00 36 1008.9
20260504020824 26 138 0.0 1.6 0.00 0.00 0.00 34 1008.8
20260504020335 26 219 1.6 4.8 0.00 0.00 0.00 36 1008.8
20260504020133 25 222 0.0 4.8 0.00 0.00 0.00 36 1008.0
20260504015820 26 222 1.6 4.8 0.00 0.00 0.00 35 1008.9
20260504015329 26 249 3.2 4.8 0.00 0.00 0.00 33 1009.0
20260504014837 27 103 0.0 1.6 0.00 0.00 0.00 30 1009.0
20260504014604 26 103 0.0 8.0 0.00 0.00 0.00 33 1008.1
20260504014327 26 284 0.0 8.0 0.00 0.00 0.00 34 1008.9
20260504013842 26 291 6.4 8.0 0.00 0.00 0.00 30 1009.0
20260504013403 27 40 0.0 1.6 0.00 0.00 0.00 29 1008.9
20260504013118 27 84 0.0 0.0 0.00 0.00 0.00 29 1008.1
20260504012852 28 232 0.0 0.0 0.00 0.00 0.00 28 1008.9
20260504012331 27 232 0.0 0.0 0.00 0.00 0.00 29 1009.1
20260504011828 26 231 0.0 0.0 0.00 0.00 0.00 32 1009.1
20260504011605 25 231 0.0 0.0 0.00 0.00 0.00 33 1008.2
20260504011342 25 248 0.0 1.6 0.00 0.00 0.00 32 1009.1
20260504010833 25 249 0.0 3.2 0.00 0.00 0.00 35 1009.1
20260504010348 25 229 0.0 3.2 0.00 0.00 0.00 39 1009.2
20260504010014 26 259 1.6 3.2 0.00 0.00 0.00 32 1008.3
20260504005838 26 270 1.6 3.2 0.00 0.00 0.00 31 1009.2
20260504005327 26 169 0.0 0.0 0.00 0.00 0.00 33 1009.3
20260504004824 24 118 0.0 1.6 0.00 0.00 0.00 35 1009.4
20260504004603 23 162 0.0 1.6 0.00 0.00 0.00 37 1008.6
20260504004338 23 181 0.0 1.6 0.00 0.00 0.00 41 1009.6
20260504003857 23 239 0.0 3.2 0.00 0.00 0.00 46 1009.7
20260504003354 24 233 0.0 3.2 0.00 0.00 0.00 43 1009.6
20260504003103 25 257 0.0 3.2 0.00 0.00 0.00 36 1008.8
20260504002835 25 211 0.0 0.0 0.00 0.00 0.00 34 1009.7
20260504002324 24 211 0.0 4.8 0.00 0.00 0.00 40 1009.8
20260504001820 25 277 1.6 4.8 0.00 0.00 0.00 37 1009.8
20260504001616 25 307 0.0 4.8 0.00 0.00 0.00 34 1009.0
20260504001326 25 253 0.0 0.0 0.00 0.00 0.00 34 1009.9
20260504000829 23 232 0.0 3.2 0.00 0.00 0.00 37 1009.9
20260504000332 22 203 0.0 6.4 0.00 0.00 0.00 42 1010.0
20260504000106 21 239 0.0 6.4 0.00 0.00 0.00 46 1009.3
20260503235827 22 236 1.6 6.4 0.00 0.00 0.00 50 1010.1
20260503235336 22 266 0.0 4.8 0.00 0.00 0.00 41 1010.0
20260503234821 22 226 0.0 3.2 0.00 0.00 0.00 46 1010.1
20260503234618 22 222 0.0 3.2 0.00 0.00 0.00 44 1009.2
20260503234323 22 219 1.6 8.0 0.00 0.00 0.00 45 1010.2
20260503233838 22 208 1.6 8.0 0.00 0.00 0.00 45 1010.2
20260503233322 22 260 1.6 6.4 0.00 0.00 0.00 43 1010.2
20260503233105 22 225 0.0 8.0 0.00 0.00 0.00 40 1009.3
20260503232823 22 235 3.2 8.0 0.00 0.00 0.00 42 1010.2
20260503232344 21 231 6.4 8.0 0.00 0.00 0.00 42 1010.3
20260503231841 22 219 4.8 8.0 0.00 0.00 0.00 44 1010.4
20260503231606 22 246 1.6 3.2 0.00 0.00 0.00 40 1009.6
20260503231356 22 250 1.6 1.6 0.00 0.00 0.00 40 1010.4
20260503230846 22 226 0.0 8.0 0.00 0.00 0.00 43 1010.5
20260503230323 23 281 4.8 8.0 0.00 0.00 0.00 38 1010.6
20260503230110 23 287 0.0 3.2 0.00 0.00 0.00 34 1009.8
20260503225827 24 253 0.0 3.2 0.00 0.00 0.00 33 1010.7
20260503225337 23 253 1.6 4.8 0.00 0.00 0.00 34 1010.7
20260503224827 22 229 3.2 6.4 0.00 0.00 0.00 37 1010.8
20260503224601 22 236 1.6 11.3 0.00 0.00 0.00 38 1010.1
20260503224335 21 221 1.6 11.3 0.00 0.00 0.00 40 1010.9
20260503223831 20 183 8.0 11.3 0.00 0.00 0.00 43 1011.0
20260503223325 20 236 1.6 9.7 0.00 0.00 0.00 55 1011.0
20260503223109 20 228 0.0 9.7 0.00 0.00 0.00 53 1010.2
20260503222825 20 210 3.2 11.3 0.00 0.00 0.00 50 1011.0
20260503222352 20 211 6.4 11.3 0.00 0.00 0.00 51 1011.1
20260503221821 20 229 4.8 6.4 0.00 0.00 0.00 42 1011.2
20260503221619 20 231 1.6 4.8 0.00 0.00 0.00 43 1010.4
20260503221319 20 227 0.0 1.6 0.00 0.00 0.00 52 1011.4
20260503220825 20 231 0.0 1.6 0.00 0.00 0.00 54 1011.4
20260503220335 20 219 0.0 4.8 0.00 0.00 0.00 45 1011.4
20260503220114 20 238 0.0 9.7 0.00 0.00 0.00 45 1010.7
20260503215829 20 242 3.2 9.7 0.00 0.00 0.00 44 1011.5
20260503214835 19 232 4.8 9.7 0.00 0.00 0.00 54 1011.7
20260503214602 19 218 3.2 9.7 0.00 0.00 0.00 56 1010.9
20260503214352 20 253 4.8 9.7 0.00 0.00 0.00 50 1011.8
20260503213822 21 241 3.2 4.8 0.00 0.00 0.00 39 1011.8
20260503213327 20 243 1.6 3.2 0.00 0.00 0.00 41 1012.0
20260503213100 19 188 0.0 3.2 0.00 0.00 0.00 43 1011.3
20260503212853 18 242 1.6 6.4 0.00 0.00 0.00 46 1012.1
20260503212339 18 246 1.6 8.0 0.00 0.00 0.00 53 1012.2
20260503211838 19 246 6.4 12.9 0.00 0.00 0.00 53 1012.3
20260503211506 18 210 1.6 12.9 0.00 0.00 0.00 45 1011.5
20260503211328 18 215 6.4 12.9 0.00 0.00 0.00 46 1012.4
20260503210908 19 228 8.0 12.9 0.00 0.00 0.00 53 1012.4
20260503210341 20 229 8.0 9.7 0.00 0.00 0.00 42 1012.5
20260503210132 20 243 3.2 12.9 0.00 0.00 0.00 42 1011.7
20260503205833 19 203 3.2 12.9 0.00 0.00 0.00 46 1012.6
20260503205326 20 274 4.8 12.9 0.00 0.00 0.00 40 1012.7
20260503204819 20 232 1.6 9.7 0.00 0.00 0.00 46 1012.7
20260503204621 19 226 1.6 11.3 0.00 0.00 0.00 48 1012.0
20260503204318 18 220 4.8 12.9 0.00 0.00 0.00 48 1012.9
20260503203821 18 215 9.7 12.9 0.00 0.00 0.00 48 1012.9
20260503203338 17 193 6.4 11.3 0.00 0.00 0.00 63 1013.0
20260503203005 17 246 0.0 4.8 0.00 0.00 0.00 60 1012.3
20260503202823 18 246 1.6 6.4 0.00 0.00 0.00 56 1013.1
20260503202344 17 239 3.2 6.4 0.00 0.00 0.00 59 1013.1
20260503201832 17 238 3.2 6.4 0.00 0.00 0.00 61 1013.2
20260503201335 18 231 3.2 14.5 0.00 0.00 0.00 54 1013.3
20260503200840 18 218 8.0 14.5 0.00 0.00 0.00 59 1013.4
20260503200330 18 238 6.4 9.7 0.00 0.00 0.00 45 1013.5
20260503200114 18 235 4.8 9.7 0.00 0.00 0.00 43 1012.8
20260503195828 18 243 6.4 9.7 0.00 0.00 0.00 45 1013.5
20260503195355 17 231 8.0 14.5 0.00 0.00 0.00 55 1013.6
20260503194826 16 221 11.3 14.5 0.00 0.00 0.00 51 1013.8
20260503194610 16 223 9.7 14.5 0.00 0.00 0.00 61 1013.1
20260503194342 16 242 6.4 11.3 0.00 0.00 0.00 60 1013.8
20260503193831 16 211 4.8 11.3 0.00 0.00 0.00 67 1014.0
20260503193336 17 243 8.0 12.9 0.00 0.00 0.00 50 1014.0
20260503193119 16 235 6.4 12.9 0.00 0.00 0.00 55 1013.3
20260503192829 17 228 11.3 12.9 0.00 0.00 0.00 59 1014.1
20260503192350 16 242 1.6 14.5 0.00 0.00 0.00 57 1014.2
20260503191823 16 222 6.4 14.5 0.00 0.00 0.00 68 1014.4
20260503191619 16 224 11.3 14.5 0.00 0.00 0.00 64 1013.6
20260503191322 17 221 0.0 11.3 0.00 0.00 0.00 52 1014.3
20260503190825 17 219 6.4 11.3 0.00 0.00 0.00 61 1014.5
20260503190323 17 201 0.0 6.4 0.00 0.00 0.00 45 1014.4
20260503190105 17 206 0.0 6.4 0.00 0.00 0.00 46 1014.0
20260503185850 17 243 1.6 6.4 0.00 0.00 0.00 52 1014.7
20260503185339 17 228 0.0 4.8 0.00 0.00 0.00 49 1014.8
20260503184840 16 190 0.0 4.8 0.00 0.00 0.00 66 1014.7
20260503184558 16 246 0.0 4.8 0.00 0.00 0.00 51 1014.2
20260503184321 16 249 0.0 6.4 0.00 0.00 0.00 53 1014.9
20260503183819 16 262 0.0 6.4 0.00 0.00 0.00 62 1015.0
20260503183321 17 242 0.0 3.2 0.00 0.00 0.00 52 1015.1
20260503183106 16 239 0.0 0.0 0.00 0.00 0.00 56 1014.5
20260503182842 16 224 0.0 0.0 0.00 0.00 0.00 58 1015.2
20260503182324 16 239 0.0 0.0 0.00 0.00 0.00 58 1015.3
20260503181829 15 245 0.0 0.0 0.00 0.00 0.00 64 1015.3
20260503181606 15 252 0.0 0.0 0.00 0.00 0.00 65 1014.7
20260503181318 15 281 0.0 1.6 0.00 0.00 0.00 63 1015.4
20260503180838 15 249 0.0 3.2 0.00 0.00 0.00 61 1015.4
20260503180339 15 259 1.6 4.8 0.00 0.00 0.00 58 1015.5
20260503175850 15 225 0.0 0.0 0.00 0.00 0.00 57 1015.5
20260503175325 15 222 0.0 0.0 0.00 0.00 0.00 60 1015.6
20260503174829 15 242 0.0 0.0 0.00 0.00 0.00 64 1015.7
20260503174604 14 266 0.0 0.0 0.00 0.00 0.00 67 1015.0
20260503174336 15 249 0.0 0.0 0.00 0.00 0.00 64 1015.6
20260503173823 15 239 0.0 0.0 0.00 0.00 0.00 64 1015.7
20260503173330 15 240 0.0 0.0 0.00 0.00 0.00 61 1015.8
20260503173105 15 255 0.0 0.0 0.00 0.00 0.00 62 1015.2
20260503172835 15 243 0.0 1.6 0.00 0.00 0.00 66 1015.9
20260503172329 15 226 0.0 1.6 0.00 0.00 0.00 66 1016.0
20260503171835 14 259 0.0 0.0 0.00 0.00 0.00 60 1016.1
20260503171611 14 211 0.0 0.0 0.00 0.00 0.00 65 1015.4
20260503171327 14 259 0.0 0.0 0.00 0.00 0.00 62 1016.1
20260503170832 14 256 0.0 0.0 0.00 0.00 0.00 65 1016.2
20260503170331 15 251 0.0 0.0 0.00 0.00 0.00 58 1016.2
20260503170119 14 235 0.0 0.0 0.00 0.00 0.00 61 1015.7
20260503160115 13 245 0.0 0.0 0.00 0.00 0.00 65 1016.5
20260503150844 13 25 0.0 0.0 0.00 0.00 0.00 60 1017.3
20260503150400 13 27 0.0 0.0 0.00 0.00 0.00 58 1017.3
20260503150104 12 29 0.0 0.0 0.00 0.00 0.00 58 1016.8
20260503131347 10 63 0.0 0.0 0.00 0.00 0.00 64 1016.9
20260503130840 10 66 0.0 0.0 0.00 0.00 0.00 64 1016.8
20260503130350 10 67 0.0 0.0 0.00 0.00 0.00 65 1016.7
20260503130103 9 72 0.0 0.0 0.00 0.00 0.00 64 1016.2
20260503110320 10 105 0.0 0.0 0.00 0.00 0.00 68 1016.8